QPF
0.01 0.01 0.01 0.02 0.02 0.02 0.03 0.03 0.05 0.07 0.08 0.10 0.13 0.17 0.19 0.22 0.27 0.32 0.36 0.35 0.34 0.35 0.34 0.28 0.28 0.24 0.19 0.17 0.14 0.14 0.15 0.12 0.10 0.09 0.09 0.07 0.05 0.05 0.04 0.03 0.05 0.07 0.07
0.01 0.01 0.00 0.01 0.01 0.02 0.02 0.03 0.04 0.06 0.07 0.08 0.10 0.14 0.16 0.17 0.16 0.17 0.20 0.23 0.27 0.31 0.34 0.36 0.31 0.27 0.25 0.23 0.17 0.15 0.14 0.12 0.10 0.09 0.07 0.05 0.05 0.03 0.01 0.02 0.03 0.04 0.07
0.01 0.02 0.01 0.01 0.00 0.01 0.01 0.02 0.02 0.03 0.04 0.05 0.06 0.08 0.10 0.12 0.14 0.14 0.15 0.15 0.17 0.23 0.30 0.32 0.31 0.33 0.29 0.29 0.26 0.20 0.17 0.14 0.11 0.09 0.07 0.05 0.04 0.03 0.02 0.01 0.01 0.02 0.04
0.01 0.01 0.01 0.01 0.00 0.00 0.00 0.00 0.01 0.02 0.03 0.04 0.06 0.07 0.08 0.08 0.08 0.08 0.08 0.09 0.09 0.14 0.21 0.25 0.28 0.32 0.35 0.37 0.31 0.26 0.22 0.18 0.13 0.11 0.08 0.05 0.05 0.05 0.04 0.02 0.01 0.01 0.02
0.01 0.01 0.01 0.00 0.00 0.00 0.00 0.01 0.02 0.02 0.03 0.05 0.06 0.06 0.05 0.05 0.05 0.06 0.06 0.06 0.06 0.07 0.10 0.14 0.20 0.25 0.25 0.29 0.31 0.31 0.25 0.21 0.15 0.14 0.12 0.09 0.06 0.04 0.04 0.04 0.04 0.03 0.02
0.01 0.01 0.01 0.00 0.01 0.01 0.01 0.01 0.02 0.03 0.03 0.03 0.04 0.05 0.05 0.05 0.04 0.05 0.05 0.06 0.05 0.07 0.08 0.10 0.12 0.16 0.19 0.21 0.21 0.21 0.21 0.20 0.20 0.17 0.15 0.14 0.10 0.06 0.04 0.05 0.05 0.04 0.03
0.00 0.01 0.01 0.00 0.00 0.00 0.00 0.00 0.01 0.02 0.03 0.03 0.04 0.05 0.05 0.04 0.04 0.04 0.05 0.05 0.04 0.05 0.06 0.06 0.08 0.09 0.12 0.15 0.18 0.19 0.18 0.19 0.19 0.17 0.18 0.15 0.12 0.09 0.07 0.06 0.05 0.05 0.04
0.00 0.00 0.00 0.00 0.00 0.00 0.00 0.00 0.01 0.02 0.02 0.02 0.03 0.04 0.04 0.03 0.02 0.04 0.04 0.04 0.03 0.03 0.03 0.04 0.04 0.04 0.04 0.07 0.10 0.11 0.14 0.16 0.16 0.16 0.18 0.15 0.13 0.12 0.09 0.08 0.08 0.09 0.07
0.00 0.00 0.00 0.00 0.00 0.00 0.00 0.00 0.01 0.01 0.01 0.01 0.02 0.02 0.03 0.02 0.02 0.03 0.03 0.02 0.02 0.02 0.02 0.03 0.04 0.03 0.03 0.03 0.03 0.04 0.06 0.10 0.11 0.14 0.17 0.15 0.13 0.12 0.10 0.11 0.10 0.11 0.12
0.00 0.00 0.00 0.00 0.00 0.00 0.00 0.00 0.00 0.00 0.00 0.00 0.01 0.01 0.01 0.02 0.02 0.02 0.02 0.02 0.02 0.02 0.02 0.03 0.03 0.03 0.03 0.03 0.02 0.02 0.03 0.05 0.07 0.08 0.11 0.14 0.14 0.14 0.12 0.12 0.12 0.11 0.12
0.00 0.00 0.00 0.00 0.00 0.00 0.00 0.00 0.00 0.00 0.00 0.00 0.00 0.00 0.00 0.01 0.02 0.02 0.01 0.02 0.02 0.03 0.04 0.03 0.04 0.05 0.04 0.04 0.03 0.02 0.01 0.02 0.04 0.06 0.07 0.09 0.12 0.14 0.14 0.14 0.12 0.12 0.13
0.00 0.00 0.00 0.00 0.00 0.00 0.00 0.00 0.00 0.00 0.00 0.00 0.00 0.00 0.00 0.01 0.02 0.02 0.02 0.02 0.03 0.04 0.04 0.05 0.06 0.06 0.05 0.06 0.06 0.04 0.02 0.01 0.01 0.02 0.05 0.06 0.08 0.12 0.14 0.17 0.15 0.14 0.14
0.00 0.00 0.00 0.00 0.00 0.00 0.00 0.00 0.00 0.00 0.00 0.00 0.00 0.00 0.00 0.01 0.03 0.03 0.03 0.03 0.04 0.05 0.05 0.06 0.07 0.07 0.05 0.06 0.07 0.06 0.04 0.02 0.01 0.01 0.01 0.03 0.05 0.07 0.10 0.14 0.15 0.16 0.15
0.00 0.00 0.00 0.00 0.00 0.00 0.00 0.00 0.00 0.00 0.00 0.00 0.00 0.01 0.01 0.02 0.03 0.04 0.05 0.05 0.05 0.05 0.06 0.06 0.06 0.06 0.06 0.05 0.05 0.05 0.05 0.03 0.02 0.01 0.01 0.01 0.03 0.05 0.07 0.09 0.11 0.13 0.15
0.00 0.00 0.00 0.00 0.00 0.00 0.00 0.00 0.00 0.00 0.01 0.01 0.01 0.02 0.03 0.04 0.04 0.05 0.06 0.07 0.06 0.06 0.07 0.07 0.06 0.05 0.05 0.04 0.04 0.05 0.04 0.04 0.03 0.02 0.02 0.01 0.01 0.02 0.05 0.06 0.08 0.10 0.11
0.00 0.00 0.00 0.00 0.00 0.00 0.00 0.01 0.01 0.01 0.01 0.02 0.02 0.03 0.04 0.04 0.05 0.05 0.06 0.07 0.08 0.09 0.09 0.08 0.07 0.07 0.04 0.04 0.04 0.04 0.04 0.05 0.05 0.05 0.04 0.03 0.01 0.01 0.01 0.03 0.05 0.07 0.08
0.00 0.00 0.00 0.00 0.00 0.00 0.01 0.01 0.01 0.02 0.02 0.03 0.03 0.04 0.04 0.05 0.06 0.05 0.07 0.09 0.10 0.11 0.11 0.09 0.09 0.09 0.08 0.06 0.03 0.02 0.03 0.04 0.05 0.07 0.07 0.03 0.01 0.01 0.01 0.01 0.02 0.03 0.04
0.00 0.00 0.00 0.00 0.00 0.00 0.01 0.01 0.01 0.02 0.02 0.03 0.03 0.04 0.05 0.05 0.07 0.08 0.09 0.10 0.11 0.10 0.11 0.11 0.11 0.12 0.11 0.08 0.03 0.02 0.02 0.03 0.04 0.05 0.06 0.05 0.04 0.03 0.02 0.02 0.02 0.02 0.02
0.00 0.00 0.00 0.00 0.01 0.01 0.02 0.02 0.02 0.02 0.03 0.03 0.04 0.04 0.05 0.07 0.07 0.08 0.10 0.10 0.09 0.10 0.11 0.12 0.13 0.14 0.13 0.08 0.04 0.02 0.02 0.04 0.04 0.04 0.05 0.06 0.06 0.04 0.02 0.02 0.02 0.03 0.03
0.00 0.00 0.00 0.00 0.01 0.02 0.02 0.02 0.03 0.03 0.03 0.03 0.04 0.04 0.07 0.08 0.08 0.09 0.11 0.12 0.11 0.10 0.11 0.12 0.13 0.14 0.14 0.09 0.03 0.02 0.03 0.05 0.06 0.08 0.07 0.04 0.04 0.03 0.02 0.02 0.03 0.03 0.03
0.00 0.00 0.00 0.01 0.01 0.02 0.03 0.03 0.03 0.04 0.03 0.04 0.05 0.06 0.08 0.09 0.09 0.10 0.11 0.12 0.12 0.12 0.12 0.12 0.13 0.14 0.13 0.09 0.03 0.01 0.02 0.06 0.08 0.09 0.10 0.07 0.04 0.01 0.01 0.01 0.02 0.03 0.04
0.00 0.00 0.01 0.01 0.01 0.02 0.03 0.03 0.03 0.04 0.04 0.04 0.05 0.06 0.08 0.07 0.06 0.10 0.11 0.12 0.12 0.13 0.13 0.13 0.13 0.15 0.12 0.07 0.04 0.01 0.01 0.03 0.08 0.11 0.12 0.10 0.05 0.02 0.01 0.00 0.00 0.00 0.01
0.00 0.00 0.01 0.01 0.01 0.02 0.03 0.03 0.04 0.04 0.04 0.05 0.06 0.07 0.07 0.08 0.09 0.10 0.12 0.13 0.14 0.14 0.14 0.13 0.13 0.14 0.14 0.09 0.02 0.01 0.00 0.00 0.03 0.06 0.07 0.06 0.03 0.02 0.01 0.01 0.00 0.00 0.01
0.00 0.01 0.01 0.01 0.02 0.02 0.02 0.03 0.04 0.04 0.05 0.06 0.07 0.07 0.08 0.08 0.09 0.12 0.13 0.13 0.13 0.13 0.14 0.13 0.14 0.14 0.14 0.12 0.09 0.06 0.03 0.01 0.01 0.02 0.02 0.02 0.01 0.01 0.01 0.01 0.00 0.00 0.01
0.01 0.01 0.01 0.02 0.01 0.01 0.02 0.03 0.04 0.04 0.05 0.06 0.07 0.07 0.08 0.09 0.10 0.11 0.09 0.07 0.07 0.05 0.06 0.08 0.12 0.13 0.12 0.08 0.06 0.07 0.09 0.08 0.05 0.05 0.07 0.06 0.05 0.03 0.02 0.03 0.03 0.02 0.02
0.01 0.01 0.01 0.01 0.01 0.01 0.02 0.03 0.04 0.04 0.06 0.07 0.07 0.07 0.08 0.09 0.11 0.12 0.10 0.05 0.02 0.01 0.01 0.01 0.02 0.03 0.03 0.02 0.01 0.01 0.02 0.02 0.02 0.04 0.08 0.09 0.08 0.07 0.07 0.06 0.06 0.05 0.04
MSLP
1010.52 1010.63 1010.62 1010.52 1010.36 1010.19 1010.05 1009.96 1009.94 1009.97 1010.03 1010.07 1010.07 1010.00 1009.87 1009.69 1009.52 1009.39 1009.34 1009.37 1009.47 1009.61 1009.73 1009.78 1009.71 1009.51 1009.20 1008.80 1008.40 1008.05 1007.83 1007.77 1007.88 1008.15 1008.53 1008.96 1009.38 1009.74 1010.02 1010.21 1010.36 1010.49 1010.65
1010.87 1010.93 1010.89 1010.76 1010.58 1010.38 1010.21 1010.09 1010.05 1010.08 1010.15 1010.22 1010.24 1010.20 1010.07 1009.88 1009.66 1009.46 1009.32 1009.25 1009.25 1009.30 1009.36 1009.35 1009.25 1009.01 1008.66 1008.22 1007.75 1007.33 1007.04 1006.92 1006.98 1007.23 1007.62 1008.09 1008.57 1009.01 1009.37 1009.64 1009.84 1010.01 1010.18
1010.93 1010.92 1010.85 1010.73 1010.55 1010.36 1010.20 1010.09 1010.06 1010.11 1010.20 1010.30 1010.36 1010.33 1010.21 1010.00 1009.74 1009.46 1009.22 1009.04 1008.94 1008.90 1008.89 1008.83 1008.70 1008.45 1008.09 1007.64 1007.15 1006.71 1006.37 1006.20 1006.24 1006.46 1006.85 1007.34 1007.87 1008.37 1008.80 1009.14 1009.40 1009.60 1009.79
1010.75 1010.69 1010.62 1010.52 1010.38 1010.24 1010.11 1010.03 1010.03 1010.10 1010.22 1010.35 1010.43 1010.43 1010.31 1010.08 1009.76 1009.41 1009.08 1008.80 1008.60 1008.47 1008.39 1008.30 1008.16 1007.93 1007.60 1007.18 1006.72 1006.28 1005.94 1005.75 1005.76 1005.96 1006.33 1006.81 1007.35 1007.88 1008.36 1008.74 1009.05 1009.28 1009.49
1010.43 1010.35 1010.31 1010.27 1010.20 1010.12 1010.04 1010.01 1010.03 1010.12 1010.26 1010.40 1010.49 1010.49 1010.37 1010.12 1009.76 1009.35 1008.93 1008.56 1008.27 1008.07 1007.93 1007.83 1007.71 1007.52 1007.26 1006.91 1006.52 1006.13 1005.82 1005.63 1005.62 1005.78 1006.11 1006.56 1007.08 1007.60 1008.07 1008.48 1008.80 1009.06 1009.28
1010.07 1010.03 1010.05 1010.09 1010.10 1010.09 1010.06 1010.05 1010.09 1010.18 1010.31 1010.45 1010.53 1010.53 1010.40 1010.13 1009.74 1009.27 1008.79 1008.35 1007.99 1007.73 1007.57 1007.47 1007.38 1007.27 1007.09 1006.85 1006.56 1006.26 1006.00 1005.83 1005.80 1005.92 1006.19 1006.58 1007.03 1007.50 1007.94 1008.33 1008.65 1008.91 1009.13
1009.78 1009.81 1009.92 1010.05 1010.14 1010.18 1010.18 1010.18 1010.21 1010.27 1010.37 1010.48 1010.55 1010.53 1010.39 1010.11 1009.70 1009.21 1008.69 1008.20 1007.79 1007.50 1007.31 1007.23 1007.19 1007.15 1007.09 1006.96 1006.79 1006.58 1006.39 1006.26 1006.22 1006.30 1006.49 1006.79 1007.16 1007.55 1007.93 1008.27 1008.56 1008.81 1009.02
1009.63 1009.76 1009.97 1010.17 1010.32 1010.39 1010.39 1010.37 1010.35 1010.36 1010.41 1010.48 1010.52 1010.48 1010.34 1010.06 1009.65 1009.15 1008.61 1008.10 1007.66 1007.35 1007.15 1007.08 1007.09 1007.13 1007.16 1007.15 1007.08 1006.98 1006.86 1006.77 1006.73 1006.77 1006.89 1007.10 1007.37 1007.68 1007.98 1008.27 1008.52 1008.74 1008.94
1009.65 1009.89 1010.18 1010.44 1010.61 1010.67 1010.65 1010.57 1010.48 1010.43 1010.41 1010.42 1010.43 1010.38 1010.24 1009.97 1009.58 1009.09 1008.56 1008.04 1007.58 1007.25 1007.05 1006.98 1007.01 1007.10 1007.21 1007.29 1007.32 1007.31 1007.26 1007.20 1007.17 1007.18 1007.25 1007.39 1007.58 1007.80 1008.04 1008.27 1008.49 1008.69 1008.89
1009.86 1010.18 1010.52 1010.80 1010.95 1010.97 1010.88 1010.73 1010.57 1010.43 1010.35 1010.31 1010.29 1010.23 1010.09 1009.85 1009.48 1009.02 1008.50 1007.98 1007.52 1007.16 1006.94 1006.86 1006.89 1007.00 1007.14 1007.28 1007.38 1007.43 1007.45 1007.43 1007.42 1007.43 1007.47 1007.57 1007.70 1007.87 1008.07 1008.27 1008.47 1008.67 1008.87
1010.22 1010.58 1010.93 1011.17 1011.28 1011.23 1011.06 1010.83 1010.59 1010.38 1010.24 1010.16 1010.11 1010.05 1009.93 1009.70 1009.37 1008.93 1008.42 1007.90 1007.43 1007.04 1006.78 1006.66 1006.66 1006.75 1006.90 1007.05 1007.19 1007.29 1007.35 1007.38 1007.40 1007.43 1007.49 1007.58 1007.71 1007.86 1008.05 1008.25 1008.46 1008.67 1008.89
1010.67 1011.03 1011.33 1011.51 1011.53 1011.40 1011.16 1010.86 1010.55 1010.30 1010.12 1010.01 1009.95 1009.88 1009.76 1009.54 1009.22 1008.79 1008.29 1007.77 1007.27 1006.85 1006.54 1006.36 1006.31 1006.35 1006.46 1006.60 1006.75 1006.88 1006.98 1007.06 1007.13 1007.21 1007.31 1007.44 1007.60 1007.79 1007.99 1008.22 1008.45 1008.69 1008.93
1011.15 1011.45 1011.67 1011.75 1011.68 1011.48 1011.17 1010.82 1010.49 1010.21 1010.01 1009.89 1009.80 1009.72 1009.59 1009.37 1009.04 1008.60 1008.09 1007.55 1007.02 1006.55 1006.19 1005.95 1005.83 1005.81 1005.87 1005.99 1006.12 1006.27 1006.40 1006.54 1006.68 1006.83 1007.00 1007.19 1007.41 1007.66 1007.91 1008.18 1008.44 1008.70 1008.96
1011.58 1011.78 1011.89 1011.87 1011.72 1011.46 1011.12 1010.76 1010.42 1010.15 1009.95 1009.81 1009.70 1009.58 1009.41 1009.16 1008.79 1008.33 1007.79 1007.21 1006.65 1006.14 1005.73 1005.43 1005.25 1005.18 1005.19 1005.28 1005.40 1005.55 1005.72 1005.91 1006.12 1006.35 1006.61 1006.89 1007.19 1007.49 1007.80 1008.11 1008.40 1008.68 1008.95
1011.90 1011.98 1011.98 1011.87 1011.66 1011.37 1011.03 1010.69 1010.38 1010.12 1009.92 1009.77 1009.62 1009.45 1009.22 1008.90 1008.47 1007.95 1007.37 1006.76 1006.17 1005.63 1005.19 1004.85 1004.64 1004.53 1004.51 1004.57 1004.68 1004.85 1005.05 1005.29 1005.57 1005.88 1006.21 1006.57 1006.94 1007.31 1007.67 1008.00 1008.31 1008.59 1008.85
1012.07 1012.04 1011.94 1011.76 1011.51 1011.22 1010.92 1010.62 1010.35 1010.12 1009.93 1009.75 1009.55 1009.30 1008.98 1008.56 1008.05 1007.46 1006.83 1006.19 1005.58 1005.04 1004.59 1004.26 1004.03 1003.91 1003.89 1003.94 1004.06 1004.23 1004.47 1004.75 1005.08 1005.45 1005.85 1006.27 1006.70 1007.10 1007.48 1007.82 1008.12 1008.38 1008.61
1012.10 1011.97 1011.79 1011.57 1011.32 1011.06 1010.80 1010.56 1010.34 1010.14 1009.93 1009.71 1009.43 1009.09 1008.66 1008.13 1007.53 1006.88 1006.20 1005.55 1004.95 1004.43 1004.01 1003.70 1003.50 1003.40 1003.39 1003.45 1003.58 1003.77 1004.02 1004.34 1004.70 1005.10 1005.54 1005.99 1006.44 1006.85 1007.23 1007.55 1007.82 1008.04 1008.23
1012.00 1011.80 1011.58 1011.35 1011.12 1010.90 1010.70 1010.51 1010.32 1010.13 1009.90 1009.61 1009.25 1008.80 1008.26 1007.63 1006.94 1006.23 1005.54 1004.89 1004.32 1003.85 1003.49 1003.24 1003.10 1003.04 1003.06 1003.14 1003.29 1003.49 1003.74 1004.06 1004.43 1004.84 1005.27 1005.72 1006.16 1006.56 1006.90 1007.19 1007.42 1007.59 1007.72
1011.83 1011.60 1011.37 1011.15 1010.95 1010.77 1010.61 1010.45 1010.28 1010.07 1009.80 1009.45 1009.00 1008.44 1007.80 1007.09 1006.34 1005.60 1004.90 1004.29 1003.78 1003.38 1003.10 1002.93 1002.86 1002.85 1002.91 1003.02 1003.17 1003.37 1003.61 1003.91 1004.25 1004.64 1005.05 1005.46 1005.86 1006.22 1006.52 1006.76 1006.94 1007.06 1007.15
1011.66 1011.43 1011.21 1011.00 1010.82 1010.67 1010.53 1010.38 1010.20 1009.96 1009.63 1009.20 1008.67 1008.03 1007.32 1006.55 1005.78 1005.04 1004.38 1003.83 1003.39 1003.08 1002.90 1002.81 1002.81 1002.86 1002.95 1003.07 1003.22 1003.40 1003.61 1003.87 1004.17 1004.50 1004.85 1005.21 1005.55 1005.86 1006.11 1006.30 1006.43 1006.52 1006.58
1011.53 1011.32 1011.11 1010.92 1010.76 1010.60 1010.45 1010.28 1010.06 1009.77 1009.39 1008.89 1008.29 1007.61 1006.86 1006.08 1005.32 1004.63 1004.03 1003.56 1003.22 1003.00 1002.90 1002.89 1002.95 1003.04 1003.15 1003.28 1003.41 1003.56 1003.73 1003.93 1004.16 1004.43 1004.71 1005.00 1005.27 1005.51 1005.71 1005.86 1005.95 1006.01 1006.05
1011.48 1011.29 1011.10 1010.91 1010.74 1010.57 1010.38 1010.16 1009.89 1009.53 1009.08 1008.54 1007.90 1007.19 1006.45 1005.71 1005.01 1004.39 1003.88 1003.51 1003.26 1003.14 1003.11 1003.16 1003.26 1003.37 1003.49 1003.60 1003.70 1003.81 1003.93 1004.06 1004.23 1004.42 1004.63 1004.84 1005.05 1005.23 1005.37 1005.47 1005.53 1005.57 1005.60
1011.51 1011.33 1011.15 1010.96 1010.76 1010.54 1010.30 1010.01 1009.66 1009.24 1008.74 1008.16 1007.51 1006.82 1006.12 1005.45 1004.84 1004.32 1003.92 1003.64 1003.49 1003.44 1003.48 1003.57 1003.69 1003.81 1003.91 1004.00 1004.07 1004.13 1004.19 1004.27 1004.37 1004.49 1004.62 1004.76 1004.90 1005.01 1005.09 1005.15 1005.17 1005.18 1005.19
1011.58 1011.43 1011.24 1011.03 1010.79 1010.51 1010.20 1009.84 1009.41 1008.93 1008.38 1007.79 1007.15 1006.50 1005.87 1005.29 1004.79 1004.38 1004.09 1003.92 1003.84 1003.86 1003.94 1004.05 1004.16 1004.27 1004.35 1004.41 1004.44 1004.46 1004.48 1004.51 1004.55 1004.61 1004.67 1004.74 1004.81 1004.85 1004.87 1004.87 1004.84 1004.81 1004.79
1011.66 1011.52 1011.34 1011.10 1010.81 1010.48 1010.09 1009.65 1009.15 1008.61 1008.04 1007.43 1006.83 1006.24 1005.69 1005.21 1004.82 1004.53 1004.34 1004.24 1004.24 1004.29 1004.39 1004.50 1004.61 1004.69 1004.74 1004.77 1004.77 1004.76 1004.75 1004.74 1004.73 1004.74 1004.75 1004.75 1004.74 1004.71 1004.66 1004.59 1004.50 1004.41 1004.33
1011.72 1011.59 1011.41 1011.15 1010.82 1010.43 1009.97 1009.46 1008.91 1008.32 1007.72 1007.13 1006.55 1006.03 1005.56 1005.18 1004.89 1004.69 1004.58 1004.55 1004.59 1004.66 1004.76 1004.85 1004.93 1004.99 1005.01 1005.01 1004.99 1004.96 1004.93 1004.89 1004.86 1004.83 1004.79 1004.73 1004.65 1004.54 1004.41 1004.25 1004.07 1003.90 1003.75
Thickness
5763 5764 5764 5763 5761 5758 5755 5752 5749 5747 5745 5742 5739 5736 5734 5733 5732 5731 5729 5725 5723 5722 5718 5715 5716 5718 5718 5718 5720 5721 5720 5721 5724 5723 5725 5731 5737 5739 5742 5744 5744 5744 5744
5754 5754 5754 5753 5751 5747 5745 5743 5739 5736 5735 5732 5730 5728 5725 5725 5724 5723 5721 5719 5716 5715 5713 5710 5710 5710 5711 5712 5714 5715 5714 5716 5721 5718 5716 5716 5722 5731 5741 5741 5741 5743 5745
5747 5745 5744 5744 5742 5739 5737 5734 5730 5727 5724 5722 5721 5719 5716 5715 5714 5713 5712 5712 5710 5708 5706 5705 5704 5704 5705 5705 5707 5709 5709 5709 5715 5717 5715 5712 5713 5722 5732 5737 5740 5741 5742
5742 5739 5737 5734 5733 5731 5730 5726 5722 5718 5714 5712 5709 5705 5702 5700 5701 5702 5703 5703 5703 5702 5701 5700 5699 5699 5699 5699 5700 5703 5705 5705 5704 5710 5716 5718 5719 5716 5716 5726 5734 5737 5737
5737 5733 5730 5727 5726 5724 5721 5717 5713 5708 5705 5701 5698 5695 5692 5691 5691 5691 5692 5693 5694 5694 5694 5694 5693 5692 5692 5694 5694 5696 5698 5699 5699 5702 5706 5711 5715 5717 5713 5712 5721 5727 5732
5731 5727 5725 5721 5717 5715 5711 5706 5701 5697 5694 5691 5687 5684 5681 5679 5679 5679 5680 5682 5684 5685 5686 5686 5685 5685 5685 5686 5687 5688 5689 5691 5694 5696 5699 5702 5704 5707 5710 5710 5713 5715 5724
5724 5720 5716 5712 5707 5704 5700 5696 5691 5687 5684 5680 5677 5674 5671 5670 5669 5669 5669 5670 5672 5674 5675 5677 5676 5676 5677 5678 5680 5680 5681 5684 5686 5688 5692 5696 5700 5704 5707 5707 5709 5711 5718
5719 5713 5709 5704 5699 5694 5689 5685 5680 5676 5674 5670 5667 5665 5662 5661 5661 5660 5659 5659 5661 5663 5666 5667 5668 5668 5668 5669 5670 5671 5673 5676 5678 5681 5684 5687 5693 5698 5702 5703 5703 5703 5707
5711 5706 5702 5696 5690 5685 5680 5675 5670 5666 5663 5660 5658 5655 5653 5651 5649 5648 5647 5648 5649 5652 5654 5654 5655 5656 5658 5659 5659 5660 5663 5666 5669 5672 5675 5678 5683 5688 5694 5699 5701 5698 5695
5704 5698 5693 5687 5681 5676 5671 5666 5661 5656 5653 5650 5647 5645 5642 5639 5637 5636 5635 5634 5634 5636 5638 5639 5642 5643 5645 5646 5647 5649 5652 5655 5658 5661 5664 5669 5673 5678 5684 5689 5693 5696 5694
5695 5689 5683 5678 5672 5667 5661 5655 5651 5646 5642 5639 5635 5632 5631 5628 5626 5623 5622 5621 5621 5621 5621 5623 5626 5628 5631 5633 5634 5637 5640 5643 5646 5650 5654 5658 5664 5668 5673 5678 5683 5687 5689
5687 5680 5674 5667 5661 5655 5650 5645 5640 5635 5631 5628 5625 5621 5619 5616 5613 5610 5608 5607 5606 5606 5606 5608 5610 5612 5615 5618 5621 5622 5627 5630 5634 5638 5642 5647 5653 5657 5662 5666 5671 5676 5681
5678 5671 5664 5657 5651 5645 5640 5635 5631 5626 5622 5618 5613 5609 5605 5601 5598 5595 5593 5591 5590 5590 5591 5591 5594 5596 5599 5603 5607 5608 5612 5617 5621 5626 5630 5635 5639 5644 5649 5655 5660 5665 5671
5669 5662 5655 5648 5643 5637 5632 5627 5622 5617 5612 5607 5602 5597 5592 5588 5585 5582 5580 5579 5578 5577 5577 5577 5579 5582 5585 5588 5592 5595 5598 5603 5607 5612 5617 5622 5627 5632 5636 5642 5648 5653 5658
5662 5654 5647 5641 5635 5629 5624 5619 5613 5608 5602 5596 5591 5586 5582 5578 5574 5571 5569 5568 5566 5565 5565 5565 5566 5568 5571 5575 5578 5581 5584 5588 5593 5598 5603 5608 5614 5620 5624 5630 5636 5641 5646
5654 5647 5641 5634 5628 5622 5616 5610 5604 5598 5593 5587 5582 5577 5573 5569 5565 5562 5560 5558 5556 5554 5553 5552 5553 5555 5559 5563 5565 5567 5571 5576 5580 5584 5588 5593 5599 5606 5612 5617 5624 5629 5633
5648 5641 5634 5627 5621 5616 5609 5602 5596 5591 5585 5579 5574 5569 5564 5560 5557 5554 5552 5549 5546 5544 5542 5542 5542 5544 5547 5550 5553 5555 5559 5565 5568 5571 5575 5580 5589 5594 5599 5605 5611 5617 5622
5642 5635 5629 5622 5617 5611 5603 5596 5590 5585 5579 5573 5567 5562 5557 5553 5549 5546 5544 5541 5537 5535 5534 5534 5535 5536 5539 5541 5543 5545 5548 5553 5557 5561 5565 5568 5574 5581 5587 5593 5599 5606 5613
5638 5631 5625 5618 5612 5605 5598 5591 5585 5579 5573 5567 5561 5557 5552 5547 5543 5541 5538 5535 5533 5531 5529 5529 5530 5531 5533 5534 5536 5537 5541 5545 5549 5553 5557 5560 5564 5570 5576 5581 5588 5595 5602
5636 5628 5621 5614 5607 5600 5593 5586 5580 5574 5568 5562 5557 5552 5547 5543 5539 5536 5533 5531 5529 5527 5527 5527 5527 5528 5530 5531 5531 5531 5535 5538 5542 5546 5551 5554 5557 5561 5565 5570 5576 5582 5590
5633 5625 5617 5610 5602 5596 5589 5582 5576 5570 5564 5559 5554 5549 5545 5541 5538 5535 5531 5529 5527 5526 5526 5525 5526 5527 5528 5528 5528 5527 5530 5534 5537 5540 5544 5548 5551 5554 5557 5562 5568 5573 5579
5629 5622 5614 5606 5599 5593 5586 5579 5573 5567 5562 5557 5552 5548 5544 5541 5539 5534 5531 5529 5527 5526 5526 5525 5525 5525 5526 5526 5526 5526 5526 5528 5531 5536 5540 5543 5545 5547 5549 5554 5560 5564 5569
5626 5618 5611 5604 5597 5591 5584 5577 5572 5566 5561 5556 5552 5548 5544 5541 5538 5535 5532 5530 5528 5526 5525 5524 5524 5524 5524 5524 5524 5523 5524 5524 5527 5532 5535 5536 5539 5541 5544 5547 5552 5556 5562
5624 5616 5608 5601 5595 5589 5583 5576 5572 5566 5560 5556 5552 5549 5545 5542 5539 5536 5533 5530 5528 5526 5525 5524 5523 5523 5523 5522 5523 5524 5524 5523 5524 5528 5531 5532 5534 5537 5542 5546 5547 5552 5559
5622 5614 5606 5599 5593 5588 5582 5577 5572 5566 5561 5557 5554 5551 5547 5544 5541 5537 5532 5530 5525 5522 5521 5522 5522 5522 5521 5517 5517 5520 5523 5524 5526 5528 5530 5532 5535 5537 5541 5545 5549 5552 5556
5620 5612 5605 5598 5593 5587 5582 5577 5572 5566 5561 5558 5555 5552 5549 5547 5544 5541 5537 5529 5526 5521 5519 5517 5517 5518 5516 5515 5516 5517 5518 5520 5522 5525 5530 5532 5535 5538 5542 5544 5547 5551 5555